Regional Weather Roundup
Issued by NWS Jackson, KY

Home | Current Version | Previous Version | Text Only | Print | Product List | Glossary Off
Versions: 1 2 3 4 5 6 7 8 9 10 11 12 13 14 15 16 17 18 19 20 21 22 23 24 25 26 27 28 29 30 31 32 33 34 35 36 37 38 39 40 41 42 43 44 45 46 47 48 49 50

000
ASUS43 KJKL 301610
RWRJKL

EAST KENTUCKY HOURLY WEATHER ROUNDUP
NATIONAL WEATHER SERVICE JACKSON KY
1200 PM EDT SAT AUG 30 2014

NOTE: "FAIR" INDICATES FEW OR NO CLOUDS BELOW 12,000 FEET WITH
NO SIGNIFICANT WEATHER AND/OR OBSTRUCTIONS TO VISIBILITY.

* THESE REPORTS ARE NOT UNDER NWS QUALITY CONTROL AND MAY NOT
  REPORT WEATHER SUCH AS PRECIPITATION AND FOG.

KYZ079-080-083-085-087-088-110-112-115-119-120-301700
...EASTERN KENTUCKY...

CITY           SKY/WX    TMP DP  RH WIND       PRES   REMARKS
JACKSON        MOSUNNY   84  68  58 VRB3      30.15F
LONDON         MOSUNNY   86  66  51 S9        30.15S
SOMERSET*      SUNNY     82  64  54 S7        30.14S
MONTICELLO*    MOSUNNY   84  69  60 S7        30.14S
WILLIAMSBURG*  SUNNY     82  68  61 S6        30.15S
MIDDLESBORO*   MOSUNNY   85  68  56 SE3       30.17S
HARLAN APT*    MOSUNNY   82  64  54 MISG      30.18S
HAZARD APT*    PTSUNNY   84  68  58 S7        30.15S
BLACK MTN*       N/A     75  63  64 E1          N/A
PIKEVILLE APT* SUNNY     82  70  65 S6        30.16F
BIG SANDY*     SUNNY     85  69  58 S8        30.15F
MOREHEAD APT*  SUNNY     84  68  58 S10G16    30.14S
$$

KYZ035-036-041-042-044-050-067-078-099-301700
...CENTRAL KENTUCKY...

CITY           SKY/WX    TMP DP  RH WIND       PRES   REMARKS
MT STERLING*   SUNNY     82  70  65 SW12      30.13S
FLEMING/MASON* SUNNY     86  68  54 SW9       30.11S
DANVILLE*      MOSUNNY   86  66  51 SW10      30.13R
RICHMOND*      MOSUNNY   84  64  51 S13       30.12S
LEXINGTON      MOSUNNY   86  67  52 S13       30.11R
FRANKFORT      CLOUDY    84  67  56 S12       30.08S
$$

KYZ091>093-OHZ055-061-077-WVZ005-015-034-035-042-301700
...SOUTHERN OHIO/WEST VIRGINIA...

CITY           SKY/WX    TMP DP  RH WIND       PRES   REMARKS
COVINGTON      CLOUDY    83  65  54 VRB7      30.08R
COLUMBUS       PTSUNNY   88  65  46 S13       30.06S HX  90
DAYTON         PTSUNNY   84  68  58 SW13      30.07R
WILMINGTON     SUNNY     83  68  60 S12       30.07S
HUNTINGTON     SUNNY     84  69  60 S9        30.11F
CHARLESTON     MOSUNNY   87  68  52 S9        30.13F HX  90
PINEVILLE*     SUNNY     86  71  60 MISG      30.25F HX  91
BECKLEY        SUNNY     81  63  54 S5        30.25F
BLUEFIELD      SUNNY     82  63  52 S6        30.28F
$$

VAZ002-007-008-TNZ017-027-036-066-071-301700
...SOUTHWEST VIRGINIA/EAST TENNESSEE...

CITY           SKY/WX    TMP DP  RH WIND       PRES   REMARKS
WISE*          SUNNY     79  61  53 S10       30.27F
JONESVILLE*      N/A     84  66  54 CALM      30.20F
ABINGDON*      SUNNY     85  66  53 S5        30.24F
BRISTOL        SUNNY     85  63  47 VRB5      30.20F
KNOXVILLE      PTSUNNY   86  67  52 CALM      30.14F
OAK RIDGE      MOSUNNY   85  67  54 CALM      30.17S
CROSSVILLE     PTSUNNY   80  64  58 S3        30.20R
NASHVILLE      CLOUDY    81  68  64 VRB3      30.10S
$$

...KEY TO REMARKS...
VSB - VISIBILITY IN MILES
WCI - WIND CHILL INDEX
HX  - HEAT INDEX

$$


USA.gov is the U.S. government's official web portal to all federal, state and local government web resources and services.